Retour au catalogue

QIANFAN-213

ActifCommunicationsPO
NORAD 69812·PAYLOAD·🇨🇳 China

Lancé Jul 4, 2026 depuis Taiyuan Satellite Launch Center

Loading…

Prochains Passages (prochaines 24 heures)

TLE

FraisSource: Space-Track

Époque: Sep 14, 2026, 21:27 UTC

1 69812U 26153N   26257.89395120 -.01877422  00000-0 -12867+1 0  9999
2 69812  88.9973 352.0659 0011298 336.0997  23.9657 14.03380858 10272

Suivez QIANFAN-213 en temps réel avec AllMySat

Download on the App Store